Weather Roundup
Issued by NWS Chicago, IL

Home | Current Version | Previous Version | Text Only | Print | Product List | Glossary On
Versions: 1 2 3 4 5 6 7 8 9 10 11 12 13 14 15 16 17 18 19 20 21 22 23 24 25 26 27 28 29 30 31 32 33 34 35 36 37 38 39 40 41 42 43 44 45 46 47 48 49 50
000
NZUS59 KLOT 172200
HRRLOT

CHICAGO AREA WEATHER ROUNDUP
NATIONAL WEATHER SERVICE CHICAGO/ROMEOVILLE IL
400 PM CST WED DEC 17 2014

NOTE: "FAIR" INDICATES FEW OR NO CLOUDS BELOW 12,000 FEET WITH NO
SIGNIFICANT WEATHER AND/OR OBSTRUCTIONS TO VISIBILITY.

* THESE STATIONS ARE NOT UNDER NWS QUALITY CONTROL. THEY ALSO MAY NOT
  REPORT WEATHER SUCH AS PRECIPITATION OR FOG.

ILZ005-006-012>014-019>023-172300-
NORTHEAST ILLINOIS

CITY           SKY/WX    TMP DP  RH WIND       PRES   REMARKS
OHARE          CLOUDY    26  16  65 NW12      30.23R WCI  16
MIDWAY         CLOUDY    28  17  63 W12       30.25R WCI  18
AURORA         CLOUDY    26  17  68 NW10      30.25R WCI  16
WAUKEGAN       CLOUDY    25  15  66 NW9       30.21R WCI  15
DUPAGE AIRPORT CLOUDY    26  16  65 NW9       30.23R WCI  17
WHEELING       CLOUDY    26  16  65 NW10      30.25R WCI  16
NORTHERLY IS     N/A     27  18  69 NW9         N/A  WCI  18
$$

WIZ051-052-058>065-066-070>072-172300-
SOUTHEAST WISCONSIN

CITY           SKY/WX    TMP DP  RH WIND       PRES   REMARKS
MILWAUKEE      CLOUDY    26  14  60 NW14G23   30.21R WCI  14
KENOSHA*       CLOUDY    25  15  66 W13       30.21R WCI  14
RACINE*        CLOUDY    26  16  65 NW12      30.22R WCI  16
WAUKESHA       CLOUDY    23  16  74 W13G23    30.21R WCI  11
$$

INZ001>003-010>013-019-020-172300-
NORTHWEST INDIANA

CITY           SKY/WX    TMP DP  RH WIND       PRES   REMARKS
GARY*          CLOUDY    28  19  69 W14       30.22  WCI  17
MICHIGAN CITY* NOT AVBL
RENSSELAER*    NOT AVBL
$$

LMZ740>746-172300-
SOUTHERN LAKE MICHIGAN

STATION/POSITION TIME  SKY/WX   TEMP WIND        PRES    VSBY
                                AIR  DIR/SP/G
                 (UTC)          (F)  (DEG/KT/KT) (MB)    (MI)
HARRISON CRIB    2100            26  290/ 14/ 17   N/A
BURNHAM HARBOR   2200            27  270/  6/ 14   N/A
CALUMET HARBOR   2100            27  260/  7/ 14 1022.4R
BURNS HARBOR     NOT AVBL
MICHIGAN CITY    NOT AVBL
$$

ABBREVIATIONS USED IN REMARKS
   TC - TEMPERATURE IN CELSIUS
  WCI - WIND CHILL INDEX
   HX - HEAT INDEX
  VSB - VISIBILITY
$$


USA.gov is the U.S. government's official web portal to all federal, state and local government web resources and services.